Wind_Speed
17 17 17 17 16 16 16 16 16 15 15 14 14 14 14 14 14 13 13 13 12 12 11 11 11 11 10 10 9 9 9 9 9 9 9 9 8 7 7 6 7 6 6
18 18 18 18 17 17 17 17 16 16 16 16 16 15 15 15 15 14 14 14 13 13 13 12 12 12 11 11 10 10 10 10 10 9 9 9 9 9 8 8 8 7 7
20 19 19 19 18 18 18 18 17 17 17 16 16 16 16 15 15 15 14 14 14 14 14 14 13 12 12 11 11 11 11 11 11 10 10 11 10 10 10 10 9 8 8
21 21 20 20 20 19 19 18 18 17 17 17 16 16 16 16 15 16 15 15 15 15 15 15 14 14 13 13 13 13 13 13 12 12 12 11 11 11 11 10 10 9 9
22 22 21 21 20 20 20 20 19 19 18 18 17 17 16 16 16 16 15 15 15 15 15 15 15 15 15 14 14 14 15 14 14 13 13 12 12 12 12 12 12 11 10
23 23 22 22 21 21 21 21 20 19 19 19 19 19 18 17 17 17 17 16 15 15 15 15 16 16 16 16 15 16 16 15 15 14 14 14 13 13 13 13 13 12 12
24 24 23 23 22 22 22 21 20 20 20 19 19 19 19 18 18 17 17 17 16 16 16 16 16 16 16 16 16 16 16 16 16 16 15 15 15 14 14 14 13 13 14
25 25 24 24 23 23 22 22 21 21 21 21 20 20 19 19 19 18 18 18 18 17 17 17 17 17 17 17 17 16 17 17 17 17 16 16 16 15 16 16 15 15 15
27 26 26 26 25 25 24 23 23 22 22 21 21 21 21 20 20 19 19 19 19 18 18 18 18 18 18 17 18 17 17 17 17 17 17 17 17 17 17 17 16 16 16
28 27 27 27 27 26 26 25 25 24 23 22 22 22 21 21 21 20 20 19 19 19 19 19 19 19 19 19 19 19 18 18 18 18 18 18 18 18 18 18 18 18 18
30 29 29 28 28 28 28 27 27 26 25 24 24 23 22 22 21 21 21 20 20 20 20 20 20 20 20 20 20 20 20 20 20 20 20 20 20 20 20 20 21 21 20
31 30 30 30 29 29 29 29 28 28 27 26 25 25 24 23 23 22 22 22 21 21 20 20 21 21 21 21 21 21 21 21 22 22 22 22 22 22 22 22 22 22 22
32 31 31 31 31 31 30 30 29 29 28 27 27 26 26 25 25 24 24 24 23 22 22 22 22 22 22 22 22 22 22 23 23 24 24 24 24 24 24 23 23 23 22
33 33 32 32 32 32 31 30 30 30 29 29 28 28 27 27 27 26 26 25 25 24 24 24 23 23 23 23 23 24 24 24 25 25 24 24 24 24 25 24 24 24 24
34 34 34 34 34 33 31 31 31 30 30 30 29 29 28 28 28 27 27 27 26 26 26 25 25 25 25 25 25 25 25 25 25 25 25 25 25 25 25 25 25 25 26
35 34 34 35 35 34 33 33 32 32 32 31 30 30 29 29 29 29 28 28 27 27 27 27 27 27 27 26 26 26 26 26 26 26 26 26 26 26 27 27 27 27 27
36 35 35 36 36 35 34 34 33 33 32 32 31 31 30 30 30 29 29 28 28 29 28 29 28 28 28 28 27 27 27 27 27 27 27 27 27 27 28 28 28 28 28
36 36 36 36 37 37 36 35 34 35 33 33 33 32 31 31 31 31 30 30 29 30 30 30 29 28 28 28 27 27 27 27 27 28 27 27 28 28 28 28 29 29 29
38 37 37 36 37 37 37 36 36 36 36 34 34 33 33 33 32 32 32 31 31 30 30 30 30 29 29 29 28 28 28 28 28 29 29 29 29 29 29 29 30 30 31
39 38 38 38 37 38 38 38 38 38 37 36 35 35 35 34 33 33 33 33 32 32 31 32 32 31 31 30 30 30 30 30 30 30 30 30 30 30 30 30 30 31 32
39 39 39 39 39 39 39 39 39 39 39 38 37 37 36 36 35 35 34 34 34 34 33 33 33 33 32 32 32 31 31 31 31 31 31 31 31 31 31 32 32 32 33
39 40 41 41 41 41 40 40 40 41 40 40 39 38 38 38 37 37 36 35 35 35 35 34 34 34 34 33 33 33 33 32 32 32 32 32 32 32 33 33 34 34 34
39 39 41 41 42 42 42 41 42 42 42 42 41 40 39 40 39 38 38 37 37 37 36 36 36 35 35 36 35 35 34 34 34 34 34 34 35 34 34 35 36 36 36
39 40 41 42 42 43 44 43 43 44 43 43 43 42 41 41 41 40 39 39 39 39 38 38 38 37 37 37 37 37 37 37 36 36 36 36 37 37 37 37 37 38 38
40 40 42 42 44 44 44 45 44 45 45 45 44 43 42 42 42 42 41 40 40 41 40 40 40 40 39 39 38 38 38 38 38 38 38 38 38 38 39 39 39 38 39
40 41 42 43 43 44 44 45 46 46 47 47 46 46 44 43 43 43 42 41 42 41 41 41 42 42 42 41 40 40 40 40 40 40 40 40 40 40 39 39 39 39 39
Wind_Direction
247 246 247 247 246 244 242 241 240 240 239 238 238 237 238 238 238 240 240 239 239 239 239 241 241 241 242 244 246 248 248 249 249 249 252 254 255 256 252 247 248 244 239
248 246 246 247 245 244 242 241 240 240 240 240 241 240 240 241 240 240 243 240 239 240 241 243 244 242 242 242 243 246 247 246 251 252 252 253 255 255 253 250 249 246 241
249 248 247 247 246 244 242 240 240 241 241 242 243 244 244 245 243 242 243 240 239 242 245 245 247 245 245 245 247 249 248 249 251 252 253 251 252 255 254 251 251 250 246
249 248 247 246 245 244 242 240 240 241 242 243 244 244 245 245 245 245 245 242 243 245 248 247 248 249 249 249 251 253 250 250 252 252 254 250 251 253 253 252 251 250 249
249 247 246 245 244 244 244 243 241 242 243 244 243 243 244 245 245 246 247 245 245 246 246 247 249 251 252 251 252 253 251 252 253 253 252 251 251 251 251 252 251 251 249
247 247 245 244 244 244 244 244 244 243 245 245 243 243 245 247 248 248 248 248 247 249 250 251 251 253 252 252 253 251 252 253 253 254 252 252 251 251 250 251 253 253 252
246 246 244 243 243 243 243 243 241 243 245 245 245 245 245 246 246 248 249 249 250 249 249 250 252 252 253 253 253 253 252 253 252 252 253 253 252 251 250 252 253 255 255
245 245 243 242 241 242 242 241 241 242 244 245 246 246 246 247 247 248 249 250 250 250 250 250 251 251 252 251 251 252 251 253 252 251 252 252 253 253 253 252 254 254 254
245 244 244 242 241 241 241 241 242 243 245 245 246 246 246 246 248 249 250 250 251 251 251 252 252 251 250 249 249 250 251 252 252 253 253 253 253 254 253 254 255 254 254
245 243 243 242 241 241 241 241 241 243 245 245 246 247 248 247 247 248 250 251 252 253 253 254 254 253 252 251 251 250 251 254 254 255 255 256 256 256 255 255 256 256 257
245 243 242 242 241 242 242 242 242 244 245 247 247 248 249 249 248 249 251 252 252 253 254 255 256 256 255 254 254 255 255 255 255 256 257 257 258 259 259 257 257 257 257
244 243 242 242 242 242 242 243 243 244 245 246 247 247 248 249 249 250 252 253 254 254 255 256 259 259 259 259 259 259 257 257 257 258 259 260 261 261 261 260 259 258 258
243 242 242 242 243 243 243 242 243 245 246 247 247 247 247 248 249 252 253 254 255 256 257 257 259 258 258 260 259 259 258 258 259 259 260 261 262 262 262 261 260 260 259
242 242 241 241 242 243 242 241 242 244 246 247 247 247 248 249 251 252 253 255 256 256 257 257 258 258 258 260 260 259 259 258 258 259 260 261 261 260 260 260 259 260 260
243 243 242 242 242 243 242 241 242 243 245 246 247 248 249 249 251 252 253 255 256 257 257 259 259 260 260 260 260 260 259 259 259 259 260 260 260 259 259 258 257 259 260
244 243 242 242 242 242 243 243 243 244 245 246 247 248 249 250 251 251 253 255 256 257 258 258 259 260 259 260 261 260 260 259 259 260 261 261 261 260 260 260 260 260 260
244 244 242 241 241 242 242 243 243 244 245 246 246 248 250 250 250 252 253 254 256 256 257 258 258 259 260 261 261 261 260 259 259 260 261 262 263 263 262 262 262 261 261
244 244 242 242 242 242 242 242 243 243 244 246 246 248 249 250 251 252 254 254 256 257 259 259 258 258 260 260 260 260 260 260 260 260 261 262 263 263 263 262 262 262 262
244 243 243 242 242 242 242 242 243 244 244 245 246 247 249 250 252 253 254 255 256 258 259 259 258 258 259 258 259 260 261 261 261 261 262 263 264 264 264 263 264 264 264
244 244 243 243 243 242 242 243 242 243 244 245 246 247 248 250 252 253 254 255 256 257 257 257 257 257 258 258 259 260 261 262 262 262 263 264 264 265 264 264 265 266 267
245 243 243 243 244 244 244 243 244 244 244 245 245 247 248 250 251 253 255 255 255 256 257 257 256 257 258 258 259 260 262 262 262 263 264 264 265 265 265 264 265 267 268
244 243 243 243 243 244 245 245 245 245 245 246 246 247 249 250 252 253 255 255 256 256 256 256 256 257 257 258 260 260 261 262 263 263 264 265 266 266 266 265 266 267 269
244 244 243 243 244 245 246 246 245 245 245 246 246 248 249 250 252 253 254 255 256 255 255 255 255 256 257 259 260 261 261 261 263 264 264 265 266 266 266 266 267 268 270
246 245 243 244 245 246 246 246 246 245 245 246 247 248 249 250 251 252 253 254 254 255 255 255 256 256 258 260 261 261 262 262 263 264 265 266 266 267 267 267 268 270 271
248 246 245 245 246 246 247 247 247 247 245 246 247 248 249 250 251 252 253 253 254 255 256 257 258 257 258 260 261 262 263 263 264 265 266 267 267 268 268 269 270 270 271
250 248 247 246 247 247 248 248 247 247 246 246 246 248 250 251 251 253 252 253 254 255 256 257 258 259 260 261 262 263 264 264 264 265 266 267 268 269 269 270 271 271 272
Height
5812 5813 5814 5815 5816 5817 5819 5820 5821 5823 5824 5825 5826 5827 5828 5829 5830 5831 5832 5833 5834 5835 5836 5837 5838 5839 5840 5840 5841 5842 5843 5843 5844 5845 5846 5847 5847 5848 5849 5849 5850 5851 5852
5809 5810 5811 5812 5813 5815 5816 5817 5819 5820 5822 5823 5824 5825 5826 5827 5828 5829 5830 5831 5832 5833 5834 5835 5836 5837 5838 5839 5840 5841 5841 5842 5843 5844 5844 5845 5846 5847 5848 5848 5849 5850 5850
5806 5807 5808 5809 5810 5812 5813 5815 5816 5817 5819 5820 5821 5823 5824 5825 5826 5827 5827 5829 5830 5831 5832 5833 5834 5835 5836 5837 5838 5839 5840 5841 5841 5842 5843 5844 5845 5845 5846 5847 5848 5848 5849
5802 5803 5804 5806 5807 5809 5810 5812 5813 5815 5816 5818 5819 5820 5821 5822 5823 5825 5825 5826 5827 5829 5830 5831 5832 5833 5834 5835 5836 5837 5838 5839 5839 5840 5841 5842 5843 5843 5844 5845 5846 5847 5848
5797 5799 5800 5802 5803 5805 5807 5808 5810 5811 5813 5814 5816 5817 5819 5820 5821 5822 5823 5824 5825 5826 5827 5828 5829 5830 5831 5833 5834 5835 5835 5836 5837 5838 5839 5840 5841 5841 5842 5843 5844 5845 5846
5792 5794 5796 5798 5800 5801 5803 5805 5806 5808 5810 5811 5813 5814 5816 5817 5818 5819 5821 5822 5823 5824 5824 5826 5826 5828 5829 5830 5831 5832 5833 5834 5835 5836 5837 5838 5838 5839 5840 5841 5842 5843 5844
5788 5789 5792 5794 5796 5797 5799 5801 5803 5804 5806 5808 5810 5811 5812 5814 5815 5816 5818 5819 5820 5821 5822 5823 5824 5825 5826 5827 5828 5829 5830 5831 5832 5833 5834 5835 5836 5837 5837 5838 5839 5840 5841
5783 5785 5787 5789 5791 5793 5795 5797 5799 5801 5803 5804 5806 5807 5809 5810 5812 5813 5815 5816 5817 5818 5819 5820 5821 5822 5823 5824 5825 5826 5827 5828 5829 5830 5831 5832 5833 5834 5835 5836 5837 5838 5839
5778 5780 5782 5784 5787 5789 5791 5793 5795 5797 5799 5801 5802 5804 5805 5807 5808 5810 5811 5812 5814 5815 5816 5817 5818 5819 5820 5821 5822 5823 5824 5825 5826 5827 5828 5829 5830 5831 5832 5833 5834 5835 5836
5772 5774 5777 5779 5782 5784 5786 5788 5791 5793 5795 5796 5798 5799 5801 5803 5804 5806 5807 5808 5810 5811 5812 5813 5814 5815 5816 5817 5818 5819 5820 5821 5822 5823 5824 5825 5826 5827 5828 5829 5830 5831 5832
5766 5769 5771 5774 5776 5779 5781 5783 5786 5788 5790 5792 5794 5795 5797 5799 5800 5802 5803 5805 5806 5807 5808 5809 5810 5811 5812 5813 5814 5815 5816 5818 5819 5820 5821 5821 5822 5823 5824 5825 5826 5827 5828
5760 5763 5765 5768 5771 5773 5776 5778 5781 5783 5785 5787 5789 5791 5792 5794 5796 5797 5799 5800 5802 5803 5804 5805 5806 5807 5808 5809 5810 5811 5812 5813 5814 5815 5816 5817 5818 5819 5820 5821 5822 5823 5824
5754 5757 5759 5762 5765 5768 5770 5772 5775 5777 5779 5781 5783 5785 5787 5789 5791 5792 5794 5795 5797 5798 5800 5801 5802 5802 5803 5804 5805 5806 5807 5808 5809 5810 5811 5812 5813 5814 5815 5816 5817 5818 5819
5747 5750 5753 5756 5758 5761 5764 5766 5769 5771 5773 5776 5778 5780 5782 5784 5786 5787 5789 5790 5792 5793 5795 5796 5797 5797 5798 5799 5800 5801 5802 5803 5804 5805 5806 5807 5808 5809 5810 5811 5812 5813 5814
5741 5743 5746 5749 5752 5754 5757 5760 5763 5765 5767 5769 5772 5774 5776 5778 5780 5782 5783 5785 5786 5788 5789 5790 5791 5792 5793 5793 5794 5795 5796 5797 5798 5800 5800 5801 5802 5803 5804 5805 5807 5808 5809
5733 5736 5739 5742 5745 5748 5750 5753 5756 5758 5761 5763 5765 5767 5769 5771 5774 5776 5777 5779 5780 5782 5783 5784 5785 5786 5787 5788 5788 5789 5790 5791 5793 5794 5795 5796 5796 5797 5798 5799 5800 5802 5803
5726 5728 5731 5734 5737 5740 5743 5746 5749 5751 5754 5756 5758 5760 5763 5765 5767 5769 5771 5772 5774 5775 5776 5777 5779 5780 5780 5782 5782 5783 5784 5786 5787 5788 5789 5790 5791 5791 5792 5793 5794 5795 5796
5718 5721 5724 5726 5730 5733 5736 5738 5741 5744 5746 5749 5751 5753 5756 5758 5760 5762 5764 5765 5767 5768 5770 5771 5772 5773 5774 5775 5776 5777 5778 5779 5780 5781 5782 5783 5784 5785 5786 5787 5788 5789 5789
5709 5712 5716 5718 5722 5725 5727 5731 5734 5736 5739 5741 5744 5746 5748 5751 5753 5755 5757 5758 5760 5761 5762 5764 5765 5766 5768 5769 5770 5771 5772 5773 5774 5775 5776 5777 5778 5778 5779 5780 5781 5781 5782
5701 5704 5707 5710 5713 5716 5719 5722 5725 5728 5731 5733 5736 5738 5741 5743 5745 5747 5749 5751 5752 5753 5755 5756 5758 5759 5761 5762 5763 5764 5765 5766 5767 5768 5769 5770 5771 5771 5772 5773 5774 5774 5775
5692 5695 5699 5702 5704 5707 5710 5714 5717 5719 5722 5725 5727 5730 5732 5735 5737 5739 5741 5743 5744 5746 5747 5749 5750 5752 5753 5755 5756 5757 5758 5759 5760 5761 5762 5762 5763 5764 5765 5765 5766 5767 5767
5683 5686 5689 5692 5695 5698 5702 5705 5708 5711 5713 5716 5718 5721 5724 5726 5728 5731 5732 5734 5736 5738 5739 5741 5742 5744 5746 5747 5749 5749 5751 5752 5752 5753 5754 5755 5756 5756 5757 5757 5758 5758 5759
5674 5677 5680 5683 5686 5689 5692 5695 5698 5700 5704 5707 5709 5712 5714 5717 5719 5722 5724 5725 5727 5729 5731 5732 5734 5736 5738 5739 5740 5742 5743 5744 5745 5745 5746 5747 5747 5748 5749 5749 5749 5750 5750
5664 5666 5669 5673 5676 5679 5682 5685 5688 5690 5694 5697 5700 5702 5705 5707 5710 5712 5714 5716 5718 5720 5722 5724 5726 5728 5729 5731 5732 5733 5735 5736 5736 5737 5738 5738 5739 5739 5740 5740 5740 5740 5740
5653 5656 5659 5662 5665 5668 5671 5674 5677 5680 5683 5686 5690 5692 5695 5697 5700 5702 5704 5706 5708 5711 5713 5715 5716 5718 5720 5722 5723 5724 5725 5726 5727 5728 5729 5729 5729 5730 5730 5730 5730 5730 5730
5643 5646 5649 5652 5654 5657 5660 5663 5666 5669 5672 5675 5679 5682 5685 5687 5690 5692 5695 5697 5699 5701 5703 5705 5707 5709 5710 5712 5713 5714 5715 5716 5717 5718 5719 5719 5720 5720 5720 5720 5720 5720 5720